Location: Kalberh�ni
(46.4610°N, 7.2453°E)
Time: 07:07:02
(UTC+00:00)

Cosmos 1943 Rocket - Pass Details

Date: 20 June 2021
Orbit: 813 x 843 km, 71.0° (Epoch: 28 July)

Event Time Altitude Azimuth Distance (km) Brightness Sun altitude
Rises 23:18:42 0° 333° (NNW) 3,347 6.5 -20.0°
Reaches altitude 10° 23:21:08 10° 334° (NNW) 2,412 5.5 -20.0°
Maximum altitude 23:26:40 88° 62° (ENE) 823 2.1 -20.1°
Enters shadow 23:29:00 36° 153° (SSE) 1,262 2.6 -20.1°
